Location: Waco, TX
(31.5480°N, 97.1670°W)
Time: 01:44:44
(UTC-05:00)

ISS - Pass Details

Date: 15 February 2018
Orbit: 402 x 406 km, 51.6° (Epoch: 21 June)

Event Time Altitude Azimuth Distance (km) Brightness Sun altitude
Rises 18:18:53 0° 313° (NW) 2,313 0.5 -1.5°
Reaches altitude 10° 18:20:57 10° 312° (NW) 1,452 -0.5 -1.9°
Maximum altitude 18:24:12 76° 226° (SW) 416 -3.6 -2.6°
Drops below altitude 10° 18:27:26 10° 141° (SE) 1,447 -1.3 -3.3°
Sets 18:29:31 0° 139° (SE) 2,305 -0.3 -3.7°
